Home > Weather > Mayen > Past weeks

Flag for Germany Past Weather in Mayen, Rhineland-Palatinate, Germany — Yesterday and Last 2 Weeks

Now
55 °F

Fog.


Feels Like: 55 °F
Forecast: 49 / 76 °F
Wind: 5 mph from Northeast

Location: Buechel

Current Time: Aug 30, 2016 at 7:08:23 AM

Latest Report: Aug 30, 2016 at 6:20 AM


Visibility: 2 mi

Pressure: 30.27 "Hg

Humidity: 94%

Dew Point: 54 °F

Location of MayenLocation

Past Weather in Mayen — Graph

°F

Mayen Temperature Yesterday

Maximum temperature yesterday: 66 °F (at 11:20 AM)
Minimum temperature yesterday: 57 °F (at 5:20 AM)
Average temperature yesterday: 62 °F

High & Low Weather Summary for the Past Weeks

 TemperatureHumidityPressure
High90 °F (Aug 26, 3:20 PM)100% (Aug 18, 11:20 PM)30.39 "Hg (Aug 18, 11:20 PM)
Low52 °F (Aug 19, 6:20 AM)35% (Aug 25, 3:20 PM)29.83 "Hg (Aug 18, 6:20 AM)
Average67 °F69%30.09 "Hg
* Reported Aug 15 5:20 AM — Aug 30 5:59 AM, Mayen, Weather by CustomWeather, © 2016

Note: Actual official high and low records may vary slightly from our data, if they occured in-between our weather recording intervals... More about our weather records

Advertising

Mayen Weather History for the Previous 24 Hours

Scroll right to see more
 ConditionsComfort  
Time TempWeatherWind HumidityBarometerVisibility
5:59 AM
Tue, Aug 30
55 °FFog.6 mph94%30.27 "Hg2 mi
4:20 AM57 °FCool.6 mph88%30.27 "Hg3 mi
3:20 AM57 °FCool.7 mph94%30.27 "Hg2 mi
2:20 AM57 °FCool.7 mph94%30.27 "Hg2 mi
1:20 AM57 °FCool.7 mph94%30.27 "Hg3 mi
12:20 AM59 °FCool.7 mph88%30.24 "Hg4 mi
11:20 PM
Mon, Aug 29
59 °FCool.5 mph88%30.24 "Hg5 mi
10:20 PM59 °FCool.5 mph82%30.24 "Hg5 mi
9:20 PM61 °FCool.6 mph77%30.21 "Hg4 mi
8:20 PM61 °FCool.3 mph83%30.18 "Hg6 mi
7:20 PM61 °FCool.8 mph83%30.18 "Hg6 mi
6:59 PM61 °FPartly sunny.8 mph83%30.18 "HgN/A
6:20 PM63 °FPartly sunny.10 mph83%30.18 "HgN/A
5:20 PM64 °FPartly sunny.8 mph73%30.15 "HgN/A
4:20 PM66 °FPartly sunny.8 mph68%30.15 "HgN/A
3:20 PM66 °FBroken clouds.6 mph68%30.15 "HgN/A
2:20 PM66 °FBroken clouds.8 mph68%30.15 "HgN/A
1:20 PM66 °FBroken clouds.8 mph64%30.12 "HgN/A
12:20 PM66 °FBroken clouds.9 mph64%30.12 "HgN/A
11:20 AM66 °FBroken clouds.8 mph68%30.12 "HgN/A
10:20 AM63 °FBroken clouds.7 mph77%30.12 "HgN/A
9:20 AM64 °FBroken clouds.7 mph73%30.09 "HgN/A
8:20 AM61 °FScattered clouds.5 mph77%30.09 "HgN/A
7:20 AM59 °FPassing clouds.3 mph82%30.09 "HgN/A
Weather by CustomWeather, © 2016

See weather overviewHow to use our weather pages